PROGRESS-MS 20

Last updated on Tue Feb 07 2023 00:02:06 GMT+0000 (Coordinated Universal Time)

1 52795U 22059A 23037.56104797 .00011849 00000+0 21785-3 0 9998 2 52795 51.6425 255.5420 0008258 320.3825 112.4143 15.49636939381533
UTC large
Height (km)
Speed (km/s)
/
Latitude / Longitude
Inclination (degrees)
Orbital Period (minutes)
Azimuth
Elevation
Range (km)
Doppler Factor

Next 0 passes for location: London (51.5072 / 0.1276)

Sorry there are no passes over London.